RYR8WU ESGG-LHBP

Flight info

Callsign RYR8WU
Flight time N/A
Altitude 27000
Route TOPLA N195 ELVIX/N0442F370 DCT POKEN DCT DOSAL L996 XERBI DCT DESEN DCT VALPI DCT NIT/N0359F230 M748 ARFOX
Aircraft B38M/M-SDE1FGHILORVWXY/HB1

Departure

Time N/A
Airport Göteborg Landvetter Airport (ESGG)

Arrival

Time 2026-05-05 19:00
Airport Budapest Liszt Ferenc International Airport (LHBP)
Time Latitude Longitude Altitude Speed Heading
2026-05-05 18:25 50.31185 17.49082 36774 ft 443 kts 161°
2026-05-05 18:26 50.25391 17.52276 36771 ft 438 kts 171°
2026-05-05 18:26 50.19479 17.54369 36771 ft 438 kts 169°
2026-05-05 18:27 50.13531 17.56490 36777 ft 439 kts 170°
2026-05-05 18:27 50.07579 17.58600 36784 ft 439 kts 170°
2026-05-05 18:28 49.98648 17.61757 36793 ft 440 kts 170°
2026-05-05 18:28 49.92719 17.63847 36793 ft 439 kts 170°
2026-05-05 18:29 49.86766 17.65940 36790 ft 439 kts 170°
2026-05-05 18:29 49.80807 17.68029 36795 ft 439 kts 170°
2026-05-05 18:30 49.74846 17.70115 36801 ft 439 kts 170°
2026-05-05 18:30 49.68928 17.72179 36800 ft 439 kts 170°
2026-05-05 18:31 49.62974 17.74251 36806 ft 439 kts 170°
2026-05-05 18:31 49.57015 17.76320 36808 ft 439 kts 170°
2026-05-05 18:32 49.51060 17.78382 36807 ft 439 kts 170°
2026-05-05 18:32 49.45139 17.80427 36814 ft 439 kts 170°
2026-05-05 18:33 49.39181 17.82481 36818 ft 439 kts 170°
2026-05-05 18:33 49.33217 17.84531 36812 ft 439 kts 170°
2026-05-05 18:34 49.27256 17.86574 36821 ft 439 kts 170°
2026-05-05 18:34 49.21302 17.88609 36100 ft 440 kts 171°
2026-05-05 18:35 49.18280 17.89641 35108 ft 448 kts 171°
2026-05-05 18:35 49.15256 17.90673 34196 ft 454 kts 170°
2026-05-05 18:35 49.12159 17.91727 33208 ft 458 kts 170°
2026-05-05 18:35 49.09058 17.92781 32200 ft 455 kts 170°
2026-05-05 18:36 49.05981 17.93828 31251 ft 452 kts 171°
2026-05-05 18:36 49.02924 17.94854 30351 ft 448 kts 172°
2026-05-05 18:36 48.99853 17.95381 29421 ft 442 kts 178°
2026-05-05 18:36 48.96806 17.95795 28442 ft 438 kts 178°
2026-05-05 18:37 48.93800 17.96217 27826 ft 427 kts 178°
2026-05-05 18:37 48.90932 17.96617 27462 ft 412 kts 179°
2026-05-05 18:37 48.88093 17.97008 27035 ft 407 kts 179°
2026-05-05 18:37 48.85282 17.97395 26590 ft 403 kts 179°
2026-05-05 18:38 48.82508 17.97774 26181 ft 399 kts 177°
2026-05-05 18:38 48.79762 17.98153 25781 ft 394 kts 176°
2026-05-05 18:38 48.77046 17.98525 25366 ft 390 kts 177°
2026-05-05 18:38 48.74357 17.98896 24962 ft 387 kts 177°
2026-05-05 18:39 48.71688 17.99263 24567 ft 383 kts 179°
2026-05-05 18:39 48.69044 17.99623 24166 ft 380 kts 177°
2026-05-05 18:39 48.66459 17.99974 23794 ft 376 kts 179°
2026-05-05 18:39 48.63860 18.00331 23420 ft 373 kts 179°
2026-05-05 18:40 48.61282 18.00685 22947 ft 371 kts 178°
2026-05-05 18:40 48.58725 18.01033 22541 ft 367 kts 178°
2026-05-05 18:40 48.56196 18.01375 22167 ft 363 kts 177°
2026-05-05 18:40 48.53697 18.01717 21807 ft 359 kts 178°
2026-05-05 18:41 48.51226 18.02052 21424 ft 355 kts 177°
2026-05-05 18:41 48.48774 18.02385 21055 ft 352 kts 177°
2026-05-05 18:41 48.46381 18.02711 20707 ft 349 kts 177°
2026-05-05 18:41 48.43975 18.03038 20352 ft 346 kts 177°
2026-05-05 18:42 48.41585 18.03361 20007 ft 343 kts 177°
2026-05-05 18:42 48.39211 18.03680 19655 ft 341 kts 178°
2026-05-05 18:42 48.36858 18.04000 19307 ft 339 kts 178°
2026-05-05 18:42 48.34515 18.04316 18963 ft 336 kts 178°
2026-05-05 18:43 48.32194 18.04630 18623 ft 334 kts 178°
2026-05-05 18:43 48.29906 18.05249 18177 ft 339 kts 162°
2026-05-05 18:43 48.27890 18.07098 17797 ft 343 kts 141°
2026-05-05 18:43 48.26270 18.09725 17433 ft 342 kts 135°
2026-05-05 18:44 48.24703 18.12330 17102 ft 339 kts 136°
2026-05-05 18:44 48.23130 18.14944 16743 ft 336 kts 135°
2026-05-05 18:44 48.21576 18.17533 16445 ft 331 kts 135°
2026-05-05 18:44 48.20042 18.20087 16126 ft 328 kts 136°
2026-05-05 18:45 48.18522 18.22612 15794 ft 325 kts 135°
2026-05-05 18:45 48.17014 18.25117 15461 ft 322 kts 135°
2026-05-05 18:45 48.15522 18.27596 15138 ft 319 kts 135°
2026-05-05 18:45 48.14058 18.30023 14808 ft 317 kts 135°
2026-05-05 18:46 48.12583 18.32467 14493 ft 315 kts 135°
2026-05-05 18:46 48.11119 18.34890 14172 ft 313 kts 136°
2026-05-05 18:46 48.09662 18.37298 13851 ft 311 kts 136°
2026-05-05 18:46 48.08213 18.39692 13503 ft 309 kts 136°
2026-05-05 18:47 48.06775 18.42064 13156 ft 307 kts 136°
2026-05-05 18:47 48.05346 18.44420 12830 ft 304 kts 136°
2026-05-05 18:47 48.03931 18.46751 12505 ft 301 kts 136°
2026-05-05 18:47 48.02529 18.49060 12190 ft 299 kts 136°
2026-05-05 18:48 48.01154 18.51322 11886 ft 296 kts 137°
2026-05-05 18:48 47.99775 18.53588 11579 ft 294 kts 137°
2026-05-05 18:48 47.98407 18.55836 11253 ft 291 kts 137°
2026-05-05 18:48 47.96987 18.57952 10922 ft 286 kts 147°
2026-05-05 18:49 47.95381 18.59665 10594 ft 283 kts 149°
2026-05-05 18:49 47.93783 18.61363 10315 ft 280 kts 149°
2026-05-05 18:49 47.92209 18.63043 10082 ft 276 kts 149°
2026-05-05 18:49 47.90652 18.64709 9847 ft 275 kts 150°
2026-05-05 18:50 47.89119 18.66350 9532 ft 275 kts 150°
2026-05-05 18:50 47.87568 18.68010 9224 ft 274 kts 150°
2026-05-05 18:50 47.86024 18.69662 8923 ft 273 kts 150°
2026-05-05 18:50 47.84484 18.71307 8623 ft 271 kts 149°
2026-05-05 18:51 47.82959 18.72937 8348 ft 269 kts 150°
2026-05-05 18:51 47.81445 18.74554 8054 ft 267 kts 150°
2026-05-05 18:51 47.79938 18.76159 7767 ft 266 kts 150°
2026-05-05 18:51 47.78436 18.77760 7481 ft 265 kts 150°
2026-05-05 18:52 47.76938 18.79355 7210 ft 264 kts 150°
2026-05-05 18:52 47.75448 18.80942 6937 ft 263 kts 150°
2026-05-05 18:52 47.73982 18.82502 6662 ft 263 kts 150°
2026-05-05 18:52 47.72495 18.84078 6329 ft 262 kts 148°
2026-05-05 18:53 47.71029 18.85636 6030 ft 257 kts 148°
2026-05-05 18:53 47.69580 18.87175 5781 ft 253 kts 148°
2026-05-05 18:53 47.68177 18.88665 5664 ft 243 kts 149°
2026-05-05 18:53 47.66828 18.90094 5590 ft 234 kts 149°
2026-05-05 18:54 47.65517 18.91483 5440 ft 229 kts 149°
2026-05-05 18:54 47.64236 18.92839 5322 ft 222 kts 149°
2026-05-05 18:54 47.63009 18.94137 5224 ft 219 kts 150°
2026-05-05 18:54 47.61755 18.95402 5076 ft 218 kts 149°
2026-05-05 18:55 47.60579 18.96854 4849 ft 223 kts 142°
2026-05-05 18:55 47.59463 18.98476 4572 ft 226 kts 140°
2026-05-05 18:55 47.58382 19.00181 4279 ft 228 kts 138°
2026-05-05 18:55 47.57309 19.01918 3984 ft 229 kts 138°
2026-05-05 18:56 47.56247 19.03642 3692 ft 223 kts 138°
2026-05-05 18:56 47.55218 19.05316 3432 ft 215 kts 139°
2026-05-05 18:56 47.54248 19.06898 3182 ft 202 kts 140°
2026-05-05 18:56 47.53318 19.08405 2904 ft 194 kts 140°
2026-05-05 18:57 47.52433 19.09841 2642 ft 183 kts 140°
2026-05-05 18:57 47.51609 19.11180 2403 ft 169 kts 140°
2026-05-05 18:57 47.50852 19.12402 2211 ft 156 kts 140°
2026-05-05 18:57 47.50118 19.13573 2045 ft 158 kts 139°
2026-05-05 18:58 47.49374 19.14769 1827 ft 158 kts 139°
2026-05-05 18:58 47.48636 19.15964 1597 ft 156 kts 138°
2026-05-05 18:58 47.47910 19.17159 1367 ft 156 kts 137°
2026-05-05 18:58 47.47173 19.18342 1219 ft 158 kts 136°
2026-05-05 18:59 47.46444 19.19535 995 ft 156 kts 135°
2026-05-05 18:59 47.45706 19.20705 809 ft 154 kts 133°
2026-05-05 18:59 47.45000 19.21878 584 ft 150 kts 135°
2026-05-05 18:59 47.44343 19.22934 484 ft 124 kts 131°
2026-05-05 19:00 47.43894 19.23656 484 ft 64 kts 133°
2026-05-05 19:00 47.43684 19.23992 492 ft 29 kts 132°
2026-05-05 19:00 47.43573 19.24173 482 ft 24 kts 133°
2026-05-05 19:00 47.43448 19.24367 481 ft 27 kts 132°
2026-05-05 19:01 47.43322 19.24581 484 ft 28 kts 131°
2026-05-05 19:01 47.43189 19.24796 492 ft 29 kts 133°
2026-05-05 19:01 47.43098 19.24979 485 ft 18 kts 100°
2026-05-05 19:01 47.43136 19.25098 492 ft 13 kts 47°
2026-05-05 19:02 47.43215 19.25210 483 ft 18 kts 44°
2026-05-05 19:02 47.43329 19.25366 483 ft 27 kts 42°
2026-05-05 19:02 47.43461 19.25543 479 ft 22 kts 43°
2026-05-05 19:02 47.43577 19.25704 485 ft 23 kts 43°
2026-05-05 19:03 47.43695 19.25859 487 ft 17 kts 41°
2026-05-05 19:03 47.43729 19.25978 486 ft 14 kts 117°
2026-05-05 19:03 47.43672 19.26120 485 ft 17 kts 94°
2026-05-05 19:03 47.43673 19.26300 483 ft 18 kts 104°
2026-05-05 19:04 47.43625 19.26413 487 ft 2 kts 131°
2026-05-05 19:04 47.43606 19.26443 480 ft 6 kts 135°
2026-05-05 19:04 47.43575 19.26472 481 ft 4 kts 180°
2026-05-05 19:04 47.43554 19.26453 487 ft 4 kts 219°
2026-05-05 19:05 47.43539 19.26433 487 ft 0 kts 222°
2026-05-05 19:07 47.43167 19.23705 454 ft 0 kts 66°
2026-05-05 19:07 47.43168 19.23709 454 ft 0 kts 66°
2026-05-05 19:07 47.43533 19.26457 487 ft 0 kts 88°
2026-05-05 19:08 47.43521 19.26436 485 ft 0 kts 88°
2026-05-05 19:08 47.43520 19.26441 484 ft 0 kts 88°